Flag for U.S.A. Weather for the Past 2 Weeks in Bryan – College Station, Texas, U.S.A.

Now
54 °F

Clear.


Feels Like: 51 °F
Forecast: 48 / 77 °F
Wind: 10 mph from South

Location: Easterwood Field

Current Time: Feb 10, 2016 at 11:31:12 PM

Latest Report: Feb 10, 2016 at 10:53 PM


Visibility: 10 mi

Pressure: 30.18 "Hg

Humidity: 69%

Dew point: 44 °F

Location of Bryan – College StationLocation

Historic Weather in Bryan – College Station — Graph

°F

Bryan – College Station Temperature Yesterday

Maximum temperature yesterday: 67 °F (at 3:53 PM)
Minimum temperature yesterday: 36 °F (at 2:53 AM)
Average temperature yesterday: 51 °F

High & Low Weather Summary for the Past Weeks

 TemperatureHumidityPressure
High79 °F (Jan 31, 2:53 PM)100% (Feb 7, 7:53 AM)30.52 "Hg (Feb 7, 7:53 AM)
Low30 °F (Jan 28, 6:53 AM)13% (Feb 8, 2:53 PM)29.56 "Hg (Feb 1, 8:53 PM)
Average53 °F54%30.14 "Hg
* Reported Jan 26 9:53 PM — Feb 10 9:53 PM, Bryan – College Station, Weather by CustomWeather, © 2016

Note: Actual official high and low records may vary slightly from our data, if they occured in-between our weather recording intervals... More about our weather records

Advertising

Bryan – College Station Weather History for the Previous 24 Hours

 ConditionsComfort  
Time TempWeatherWind HumidityBarometerVisibility
9:53 PM
Wed, Feb 10
56 °FClear.10 mph62%30.19 "Hg10 mi
8:53 PM58 °FClear.12 mph50%30.19 "Hg10 mi
7:53 PM58 °FClear.7 mph44%30.19 "Hg10 mi
6:53 PM62 °FClear.6 mph38%30.19 "Hg10 mi
5:53 PM67 °FSunny.8 mph31%30.20 "Hg10 mi
4:53 PM70 °FSunny.10 mph26%30.21 "Hg10 mi
3:53 PM70 °FSunny.8 mph26%30.22 "Hg10 mi
2:53 PM69 °FSunny.10 mph26%30.24 "Hg10 mi
1:53 PM68 °FSunny.10 mph26%30.27 "Hg10 mi
12:53 PM64 °FSunny.10 mph29%30.32 "Hg10 mi
11:53 AM61 °FSunny.9 mph30%30.36 "Hg10 mi
10:53 AM58 °FSunny.7 mph28%30.38 "Hg10 mi
9:53 AM54 °FSunny.9 mph31%30.39 "Hg10 mi
8:53 AM50 °FSunny.5 mph46%30.40 "Hg9 mi
7:53 AM40 °FSunny.No wind73%30.38 "Hg10 mi
6:53 AM38 °FClear.No wind68%30.38 "Hg10 mi
5:53 AM37 °FClear.No wind73%30.35 "Hg10 mi
4:53 AM44 °FClear.3 mph51%30.34 "Hg10 mi
3:53 AM45 °FClear.7 mph51%30.33 "Hg10 mi
2:53 AM48 °FClear.8 mph44%30.34 "Hg10 mi
1:53 AM50 °FClear.9 mph41%30.34 "Hg10 mi
12:53 AM51 °FClear.9 mph41%30.33 "Hg10 mi
11:53 PM
Tue, Feb 9
51 °FClear.6 mph42%30.32 "Hg10 mi
Weather by CustomWeather, © 2016

See weather overviewHow to use our weather pages